Hampton, VA

11:20 AM EST on January 16, 2017 (GMT -0500)
Langley Air Force Base

Weather History for KLFI - December, 2013

Change the Weather History Date:

Tuesday, December 3, 2013

  Actual Average Record
Temperature  
Mean Temperature 44 °F -  
Max Temperature 57 °F 54 °F 79 °F (1991)
Min Temperature 32 °F 37 °F 20 °F (1960)
Degree Days  
Heating Degree Days 20    
Moisture  
Dew Point 35 °F    
Average Humidity 95    
Maximum Humidity 100    
Minimum Humidity 45    
Precipitation  
Precipitation 0.00 in - - ()
Sea Level Pressure  
Sea Level Pressure 29.92 in    
Wind  
Wind Speed 3 mph (West)    
Max Wind Speed 9 mph    
Max Gust Speed -    
Visibility 3 miles    
Events Fog    
Averages and records for this station are not official NWS values.
T = Trace of Precipitation, MM = Missing Value Source: NWS Daily Summary

Daily Weather History Graph

Daily Weather History Graph

Search for Another Location

Airport or City:

Trip Planner

Search our weather history database for the weather conditions in past years. The results will help you decide how hot, cold, wet, or windy it might be!

Date:

Astronomy

Dec. 03, 2013 Rise Set
Actual Time 7:02 AM EST 4:48 PM EST
Civil Twilight 6:33 AM EST 5:17 PM EST
Nautical Twilight 6:01 AM EST 5:49 PM EST
Astronomical Twilight 5:29 AM EST 6:20 PM EST
Moon 7:29 AM EST (12/3) 5:49 PM EST (12/3)
Length of Visible Light 10h 43m
Length of Day
9h 46m
New Moon, 1% of the Moon is Illuminated
Dec 3
New Moon
Dec 9
First Quarter
Dec 17
Full
Dec 25
Last Quarter
Jan 1
New

Hourly Weather History & Observations

Time (EST) Temp. Windchill Dew Point Humidity Pressure Visibility Wind Dir Wind Speed Gust Speed Precip Events Conditions
12:08 AM 37.4 °F - 37.4 °F 100% 29.87 in 1.0 mi NW 2.3 mph - N/A   Clear
12:13 AM 37.4 °F 34.9 °F 37.4 °F 100% 29.87 in 0.2 mi NW 3.5 mph - N/A Fog Fog
12:23 AM 35.6 °F 31.7 °F 35.6 °F 100% 29.87 in 0.2 mi NW 4.6 mph - N/A Fog Fog
12:38 AM 35.6 °F - 35.6 °F 100% 29.88 in 0.2 mi NW 2.3 mph - N/A Fog Fog
12:48 AM 35.6 °F - 35.6 °F 100% 29.88 in 0.5 mi NW 2.3 mph - N/A Fog Fog
12:58 AM 35.1 °F - 35.1 °F 100% 29.90 in 0.8 mi NNW 2.3 mph - N/A   Clear
1:03 AM 35.6 °F - 35.6 °F 100% 29.88 in 2.5 mi North 2.3 mph - N/A   Clear
1:08 AM 35.6 °F - 35.6 °F 100% 29.88 in 3.0 mi North 1.2 mph - N/A   Clear
1:13 AM 35.6 °F - 35.6 °F 100% 29.88 in 2.5 mi North 1.2 mph - N/A   Clear
1:18 AM 35.6 °F - 35.6 °F 100% 29.87 in 2.0 mi Calm Calm - N/A   Clear
1:23 AM 35.6 °F - 35.6 °F 100% 29.87 in 0.8 mi NNW 1.2 mph - N/A   Clear
1:28 AM 35.6 °F - 35.6 °F 100% 29.88 in 0.2 mi NNW 1.2 mph - N/A Fog Fog
1:38 AM 35.6 °F - 35.6 °F 100% 29.88 in 0.5 mi Calm Calm - N/A Fog Fog
1:43 AM 35.6 °F - 35.6 °F 100% 29.88 in 0.8 mi NW 2.3 mph - N/A   Clear
1:48 AM 33.8 °F 30.8 °F 33.8 °F 100% 29.88 in 0.2 mi NW 3.5 mph - N/A Fog Fog
1:58 AM 33.8 °F 30.8 °F 33.8 °F 100% 29.90 in 1.0 mi NW 3.5 mph - N/A   Clear
2:03 AM 33.8 °F 30.8 °F 33.8 °F 100% 29.88 in 1.5 mi WNW 3.5 mph - N/A   Clear
2:08 AM 32.0 °F 28.7 °F 32.0 °F 100% 29.89 in 1.8 mi West 3.5 mph - N/A   Clear
2:13 AM 32.0 °F - 32.0 °F 100% 29.88 in 2.0 mi West 2.3 mph - N/A   Clear
2:18 AM 35.6 °F - 35.6 °F 100% 29.89 in 4.0 mi West 2.3 mph - N/A   Clear
2:58 AM 33.1 °F - 33.1 °F 100% 29.89 in 4.0 mi SW 1.2 mph - N/A   Clear
3:18 AM 32.0 °F - 32.0 °F 100% 29.89 in 1.5 mi West 2.3 mph - N/A   Clear
3:23 AM 33.8 °F - 33.8 °F 100% 29.89 in 0.2 mi WNW 2.3 mph - N/A Fog Fog
3:53 AM 33.8 °F - 33.8 °F 100% 29.89 in 0.2 mi WNW 2.3 mph - N/A Fog Fog
3:58 AM 33.8 °F 30.8 °F 33.8 °F 100% 29.91 in 0.2 mi NW 3.5 mph - N/A Fog Fog
4:03 AM 33.8 °F 29.6 °F 33.8 °F 100% 29.90 in 0.2 mi NW 4.6 mph - N/A Fog Fog
4:08 AM 32.0 °F 28.7 °F 32.0 °F 100% 29.90 in 0.8 mi NW 3.5 mph - N/A   Clear
4:13 AM 32.0 °F 28.7 °F 32.0 °F 100% 29.90 in 1.0 mi WNW 3.5 mph - N/A   Clear
4:18 AM 32.0 °F 28.7 °F 32.0 °F 100% 29.90 in 0.2 mi West 3.5 mph - N/A Fog Fog
4:28 AM 33.8 °F - 33.8 °F 100% 29.90 in 0.5 mi West 2.3 mph - N/A Fog Fog
4:33 AM 33.8 °F - 33.8 °F 100% 29.89 in 1.5 mi West 2.3 mph - N/A   Clear
4:38 AM 33.8 °F - 33.8 °F 100% 29.90 in 3.0 mi WSW 1.2 mph - N/A   Clear
4:58 AM 34.5 °F - 34.5 °F 100% 29.92 in 4.0 mi West 2.3 mph - N/A   Clear
5:03 AM 32.0 °F 28.7 °F 32.0 °F 100% 29.90 in 0.8 mi West 3.5 mph - N/A   Clear
5:08 AM 32.0 °F - 32.0 °F 100% 29.90 in 0.2 mi West 2.3 mph - N/A Fog Fog
5:13 AM 33.8 °F - 33.8 °F 100% 29.91 in 0.5 mi WSW 2.3 mph - N/A Fog Fog
5:18 AM 33.8 °F - 33.8 °F 100% 29.91 in 1.5 mi SW 2.3 mph - N/A   Clear
5:23 AM 35.6 °F - 35.6 °F 100% 29.91 in 4.0 mi SW 2.3 mph - N/A   Clear
5:43 AM 32.0 °F 28.7 °F 32.0 °F 100% 29.92 in 2.5 mi WSW 3.5 mph - N/A   Clear
5:48 AM 32.0 °F - 32.0 °F 100% 29.92 in 2.0 mi West 2.3 mph - N/A   Clear
5:58 AM 32.7 °F - 32.7 °F 100% 29.94 in 2.0 mi WNW 1.2 mph - N/A   Clear
6:03 AM 32.0 °F - 32.0 °F 100% 29.92 in 0.2 mi Calm Calm - N/A Fog Fog
6:08 AM 33.8 °F - 33.8 °F 100% 29.92 in 0.2 mi Calm Calm - N/A Fog Fog
6:18 AM 33.8 °F - 33.8 °F 100% 29.92 in 0.2 mi Calm Calm - N/A Fog Fog
6:23 AM 33.8 °F - 33.8 °F 100% 29.92 in 0.5 mi Calm Calm - N/A Fog Fog
6:28 AM 35.6 °F - 35.6 °F 100% 29.92 in 1.0 mi Calm Calm - N/A   Partly Cloudy
6:33 AM 35.6 °F - 35.6 °F 100% 29.92 in 2.5 mi Calm Calm - N/A   Partly Cloudy
6:38 AM 35.6 °F - 35.6 °F 100% 29.93 in 3.0 mi Calm Calm - N/A   Partly Cloudy
6:48 AM 33.8 °F - 33.8 °F 100% 29.93 in 4.0 mi Calm Calm - N/A   Clear
6:58 AM 34.5 °F - 34.5 °F 100% 29.95 in 4.0 mi Calm Calm - N/A   Clear
7:43 AM 33.8 °F 30.8 °F 33.8 °F 100% 29.95 in 2.5 mi West 3.5 mph - N/A   Partly Cloudy
7:48 AM 33.8 °F 26.4 °F 33.8 °F 100% 29.95 in 1.8 mi WSW 9.2 mph - N/A   Partly Cloudy
7:53 AM 33.8 °F 28.6 °F 33.8 °F 100% 29.95 in 1.5 mi West 5.8 mph - N/A   Partly Cloudy
7:58 AM 34.5 °F 29.4 °F 34.5 °F 100% 29.97 in 1.5 mi West 5.8 mph - N/A   Partly Cloudy
8:08 AM 35.6 °F 32.8 °F 35.6 °F 100% 29.96 in 1.8 mi WSW 3.5 mph - N/A   Clear
8:18 AM 37.4 °F - 37.4 °F 100% 29.97 in 2.0 mi West 2.3 mph - N/A   Clear
8:23 AM 37.4 °F - 37.4 °F 100% 29.97 in 2.5 mi Calm Calm - N/A   Clear
8:28 AM 39.2 °F - 39.2 °F 100% 29.97 in 3.0 mi Calm Calm - N/A   Clear
8:58 AM 42.8 °F - 42.8 °F 100% 29.99 in 5.0 mi Calm Calm - N/A   Clear
9:58 AM 46.6 °F - 41.9 °F 84% 30.01 in 7.0 mi Calm Calm - N/A   Overcast
10:59 AM 51.1 °F - 44.1 °F 77% 29.99 in 9.0 mi South 3.5 mph - N/A   Mostly Cloudy
11:58 AM 54.7 °F - 39.9 °F 58% 29.97 in 10.0 mi South 4.6 mph - N/A   Clear
12:58 PM 57.4 °F - 36.1 °F 45% 29.96 in 10.0 mi SW 6.9 mph - N/A   Clear
1:58 PM 57.0 °F - 40.1 °F 53% 29.97 in 10.0 mi WSW 6.9 mph - N/A   Partly Cloudy
2:58 PM 57.4 °F - 38.3 °F 49% 29.97 in 10.0 mi SSW 5.8 mph - N/A   Mostly Cloudy
3:58 PM 57.7 °F - 39.9 °F 51% 29.98 in 10.0 mi SSW 6.9 mph - N/A   Partly Cloudy
8:58 PM 43.9 °F 42.3 °F 42.6 °F 95% 30.02 in 10.0 mi SSW 3.5 mph - N/A   Clear
9:58 PM 46.4 °F 42.9 °F 41.2 °F 82% 30.01 in 10.0 mi South 6.9 mph - N/A   Clear
10:58 PM 47.5 °F - 40.5 °F 77% 30.04 in 10.0 mi South 6.9 mph - N/A   Overcast
11:58 PM 47.7 °F - 41.2 °F 78% 30.05 in 10.0 mi South 5.8 mph - N/A   Overcast